Ft Riley, KS

9:56 AM CST on February 20, 2018 (GMT -0600)
Marshall Army Air Field

Weather History for KFRI - June, 2013

Change the Weather History Date:

Tuesday, June 18, 2013

  Actual Average (KMHK) Record (KMHK)
Temperature  
Mean Temperature 75 °F -  
Max Temperature 90 °F 84 °F 95 °F (2012)
Min Temperature 62 °F 60 °F 45 °F (2000)
Cooling Degree Days 10    
Growing Degree Days 25 (Base 50)    
Moisture  
Dew Point 64 °F    
Average Humidity 78    
Maximum Humidity 100    
Minimum Humidity 36    
Precipitation  
Precipitation 0.02 in - - ()
Sea Level Pressure  
Sea Level Pressure 29.99 in    
Wind  
Wind Speed 3 mph (ENE)    
Max Wind Speed 18 mph    
Max Gust Speed 24 mph    
Visibility 8 miles    
Events Rain    
Averages and records for this station are not official NWS values.
T = Trace of Precipitation, MM = Missing Value Source: NWS Daily Summary

Daily Weather History Graph

Daily Weather History Graph

Search for Another Location

Airport or City:

Trip Planner

Search our weather history database for the weather conditions in past years. The results will help you decide how hot, cold, wet, or windy it might be!

Date:

Astronomy

Jun. 18, 2013 Rise Set
Actual Time 6:00 AM CDT 8:55 PM CDT
Civil Twilight 5:28 AM CDT 9:27 PM CDT
Nautical Twilight 4:48 AM CDT 10:08 PM CDT
Astronomical Twilight 4:01 AM CDT 10:55 PM CDT
Moon 3:43 PM CDT (6/18) 2:07 AM CDT (6/18)
Length of Visible Light 15h 59m
Length of Day
14h 54m
Waxing Gibbous, 71% of the Moon is Illuminated
Jun 18
Waxing Gibbous
Jun 23
Full
Jun 29
Last Quarter
Jul 8
New
Jul 15
First Quarter

Hourly Weather History & Observations

Time (CDT) Temp. Heat Index Dew Point Humidity Pressure Visibility Wind Dir Wind Speed Gust Speed Precip Events Conditions
12:58 AM 68.7 °F - 68.7 °F 100% 29.99 in 10.0 mi Calm Calm - N/A   Clear
1:58 AM 66.7 °F - 66.7 °F 100% 29.99 in 8.0 mi SW 1.2 mph - N/A   Clear
2:58 AM 64.9 °F - 64.9 °F 100% 29.99 in 10.0 mi Variable 1.2 mph - N/A   Clear
3:58 AM 64.4 °F - 64.4 °F 100% 29.99 in 10.0 mi Calm Calm - N/A   Clear
4:58 AM 63.7 °F - 63.7 °F 100% 29.99 in 10.0 mi Calm Calm - N/A   Clear
5:48 AM 62.6 °F - 62.6 °F 100% 30.02 in 1.5 mi Calm Calm - N/A   Clear
5:53 AM 62.6 °F - 62.6 °F 100% 30.02 in 0.8 mi Calm Calm - N/A   Clear
5:58 AM 62.6 °F - 62.6 °F 100% 29.99 in 0.8 mi NNW 1.2 mph - N/A   Clear
6:03 AM 62.6 °F - 62.6 °F 100% 30.03 in 1.2 mi WNW 2.3 mph - N/A   Clear
6:08 AM 62.6 °F - 62.6 °F 100% 30.03 in 4.0 mi Calm Calm - N/A   Clear
6:58 AM 64.2 °F - 64.2 °F 100% 30.01 in 10.0 mi Calm Calm - N/A   Clear
7:58 AM 68.5 °F - 68.5 °F 100% 30.01 in 10.0 mi NNE 1.2 mph - N/A   Clear
8:58 AM 73.9 °F - 67.6 °F 81% 30.02 in 10.0 mi Variable 2.3 mph - N/A   Clear
9:58 AM 79.7 °F - 68.4 °F 68% 30.02 in 10.0 mi Variable 2.3 mph - N/A   Clear
10:58 AM 82.4 °F 85.2 °F 67.6 °F 61% 30.01 in 10.0 mi WSW 5.8 mph - N/A   Clear
11:58 AM 84.6 °F 86.1 °F 64.6 °F 51% 30.00 in 10.0 mi SW 4.6 mph - N/A   Clear
12:58 PM 86.5 °F 86.8 °F 61.3 °F 43% 29.99 in 10.0 mi Variable 3.5 mph - N/A   Clear
1:58 PM 87.6 °F 86.5 °F 57.9 °F 36% 29.98 in 10.0 mi Variable 5.8 mph - N/A   Scattered Clouds
2:58 PM 88.2 °F 87.3 °F 59.2 °F 37% 29.98 in 10.0 mi SSE 5.8 mph - N/A   Scattered Clouds
3:58 PM 83.8 °F 83.8 °F 59.5 °F 44% 29.96 in 10.0 mi ENE 18.4 mph 24.2 mph N/A   Clear
4:58 PM 84.4 °F 84.0 °F 58.6 °F 42% 29.95 in 10.0 mi NE 11.5 mph - N/A   Clear
5:58 PM 82.4 °F 82.3 °F 58.6 °F 44% 29.96 in 10.0 mi ENE 10.4 mph - N/A   Clear
6:58 PM 78.8 °F - 60.4 °F 53% 29.96 in 10.0 mi East 9.2 mph - N/A   Clear
7:58 PM 77.2 °F - 63.3 °F 62% 29.94 in 10.0 mi ENE 6.9 mph - N/A   Clear
8:58 PM 76.3 °F - 63.0 °F 63% 29.97 in 10.0 mi NNW 4.6 mph - N/A   Scattered Clouds
9:33 PM 73.4 °F - 64.4 °F 73% 30.01 in 10.0 mi NE 8.1 mph - N/A   Light Drizzle
9:58 PM 72.1 °F - 68.7 °F 89% 29.97 in 9.0 mi East 4.6 mph - 0.01 in Rain Light Rain
10:19 PM 71.6 °F - 68.0 °F 88% 29.99 in 10.0 mi East 5.8 mph - N/A   Partly Cloudy
10:58 PM 70.2 °F - 68.5 °F 95% 29.95 in 10.0 mi ESE 5.8 mph - 0.01 in   Mostly Cloudy
11:58 PM 67.8 °F - 67.8 °F 100% 29.96 in 10.0 mi East 2.3 mph - N/A   Clear